| time (UTC) | temp F | wind direction | speed knots | gust knots | rain 1hr in | rain 24hr in | rain mn in | humidity % | barometer mb |
| 20260507122404 | 67 | 11 | 2.6 | 8.7 | 0.00 | 0.00 | 0.00 | 81 | 1014.4 |
| 20260507121904 | 67 | 0 | 2.6 | 8.7 | 0.00 | 0.00 | 0.00 | 81 | 1014.3 |
| 20260507121405 | 67 | 341 | 2.6 | 7.0 | 0.00 | 0.00 | 0.00 | 81 | 1014.2 |
| 20260507120905 | 67 | 338 | 2.6 | 8.7 | 0.00 | 0.00 | 0.00 | 81 | 1014.1 |
| 20260507120404 | 67 | 358 | 5.2 | 8.7 | 0.00 | 0.00 | 0.00 | 81 | 1014.0 |
| 20260507115404 | 67 | 23 | 3.5 | 7.0 | 0.00 | 0.00 | 0.00 | 81 | 1013.9 |
| 20260507114404 | 68 | 18 | 3.5 | 7.0 | 0.00 | 0.00 | 0.00 | 82 | 1013.7 |
| 20260507113404 | 68 | 13 | 1.7 | 8.7 | 0.00 | 0.00 | 0.00 | 82 | 1013.3 |
| 20260507112904 | 68 | 3 | 2.6 | 8.7 | 0.00 | 0.00 | 0.00 | 81 | 1013.3 |
| 20260507111405 | 68 | 358 | 2.6 | 7.0 | 0.00 | 0.00 | 0.00 | 81 | 1013.3 |
| 20260507110904 | 68 | 3 | 2.6 | 7.8 | 0.00 | 0.00 | 0.00 | 81 | 1013.4 |
| 20260507110404 | 68 | 354 | 4.3 | 8.7 | 0.00 | 0.00 | 0.00 | 81 | 1013.3 |
| 20260507105904 | 69 | 342 | 4.3 | 8.7 | 0.00 | 0.00 | 0.00 | 82 | 1013.4 |
| 20260507104904 | 69 | 31 | 1.7 | 7.8 | 0.00 | 0.00 | 0.00 | 82 | 1013.2 |
| 20260507104404 | 69 | 28 | 4.3 | 7.8 | 0.00 | 0.00 | 0.00 | 82 | 1013.2 |
| 20260507103904 | 69 | 11 | 3.5 | 7.8 | 0.00 | 0.00 | 0.00 | 82 | 1013.2 |
| 20260507103405 | 69 | 37 | 3.5 | 7.0 | 0.00 | 0.00 | 0.00 | 82 | 1013.3 |
| 20260507102904 | 69 | 18 | 1.7 | 7.0 | 0.00 | 0.00 | 0.00 | 82 | 1013.0 |
| 20260507102404 | 69 | 352 | 1.7 | 7.0 | 0.00 | 0.00 | 0.00 | 81 | 1012.9 |
| 20260507101905 | 69 | 13 | 4.3 | 7.0 | 0.00 | 0.00 | 0.00 | 81 | 1012.8 |
| 20260507100904 | 69 | 358 | 2.6 | 11.3 | 0.00 | 0.00 | 0.00 | 81 | 1012.8 |
| 20260507100403 | 69 | 12 | 4.3 | 11.3 | 0.00 | 0.00 | 0.00 | 81 | 1012.5 |
| 20260507095905 | 69 | 355 | 4.3 | 10.4 | 0.00 | 0.00 | 0.00 | 82 | 1012.6 |
| 20260507095404 | 69 | 21 | 2.6 | 10.4 | 0.00 | 0.00 | 0.00 | 81 | 1012.7 |
| 20260507094904 | 69 | 18 | 5.2 | 10.4 | 0.00 | 0.00 | 0.00 | 81 | 1012.6 |
| 20260507094404 | 70 | 1 | 4.3 | 10.4 | 0.00 | 0.00 | 0.00 | 81 | 1012.7 |
| 20260507093904 | 70 | 9 | 6.1 | 10.4 | 0.00 | 0.00 | 0.00 | 81 | 1012.5 |
| 20260507091904 | 70 | 45 | 1.7 | 10.4 | 0.00 | 0.00 | 0.00 | 81 | 1012.6 |
| 20260507091404 | 70 | 1 | 5.2 | 10.4 | 0.00 | 0.00 | 0.00 | 81 | 1012.5 |
| 20260507090904 | 70 | 16 | 2.6 | 7.8 | 0.00 | 0.00 | 0.00 | 81 | 1012.5 |
| 20260507090403 | 70 | 357 | 3.5 | 8.7 | 0.00 | 0.00 | 0.00 | 81 | 1012.4 |
| 20260507085404 | 70 | 27 | 4.3 | 10.4 | 0.00 | 0.00 | 0.00 | 81 | 1012.2 |
| 20260507084404 | 71 | 8 | 1.7 | 8.7 | 0.00 | 0.00 | 0.00 | 81 | 1012.2 |
| 20260507083404 | 71 | 353 | 6.1 | 10.4 | 0.00 | 0.00 | 0.00 | 80 | 1012.0 |
| 20260507082904 | 71 | 53 | 4.3 | 13.0 | 0.00 | 0.00 | 0.00 | 80 | 1012.0 |
| 20260507082404 | 71 | 47 | 6.1 | 13.0 | 0.00 | 0.00 | 0.00 | 80 | 1012.0 |
| 20260507081404 | 71 | 0 | 4.3 | 10.4 | 0.00 | 0.00 | 0.00 | 81 | 1012.2 |
| 20260507080904 | 72 | 5 | 4.3 | 10.4 | 0.00 | 0.00 | 0.00 | 81 | 1012.3 |
| 20260507080404 | 72 | 5 | 5.2 | 10.4 | 0.00 | 0.00 | 0.00 | 81 | 1012.1 |
| 20260507075904 | 72 | 13 | 2.6 | 10.4 | 0.00 | 0.00 | 0.00 | 81 | 1012.0 |
| 20260507075404 | 72 | 10 | 5.2 | 11.3 | 0.00 | 0.00 | 0.00 | 81 | 1012.1 |
| 20260507074904 | 72 | 31 | 5.2 | 11.3 | 0.00 | 0.00 | 0.00 | 81 | 1012.1 |
| 20260507074404 | 72 | 17 | 4.3 | 10.4 | 0.00 | 0.00 | 0.00 | 81 | 1012.2 |
| 20260507073904 | 72 | 345 | 4.3 | 10.4 | 0.00 | 0.00 | 0.00 | 81 | 1012.2 |
| 20260507073404 | 72 | 6 | 5.2 | 10.4 | 0.00 | 0.00 | 0.00 | 81 | 1012.2 |
| 20260507072904 | 72 | 24 | 5.2 | 10.4 | 0.00 | 0.00 | 0.00 | 81 | 1012.3 |
| 20260507072403 | 72 | 20 | 2.6 | 10.4 | 0.00 | 0.00 | 0.00 | 81 | 1012.4 |
| 20260507071904 | 72 | 5 | 5.2 | 10.4 | 0.00 | 0.00 | 0.00 | 81 | 1012.4 |
| 20260507071404 | 73 | 10 | 2.6 | 8.7 | 0.00 | 0.00 | 0.00 | 80 | 1012.4 |
| 20260507070404 | 73 | 359 | 5.2 | 12.2 | 0.00 | 0.00 | 0.00 | 80 | 1012.4 |
| 20260507065904 | 73 | 18 | 6.1 | 12.2 | 0.00 | 0.00 | 0.00 | 80 | 1012.4 |
| 20260507065404 | 73 | 15 | 5.2 | 10.4 | 0.00 | 0.00 | 0.00 | 80 | 1012.4 |
| 20260507064404 | 73 | 6 | 3.5 | 10.4 | 0.00 | 0.00 | 0.00 | 80 | 1012.3 |
| 20260507063904 | 73 | 349 | 4.3 | 10.4 | 0.00 | 0.00 | 0.00 | 80 | 1012.3 |
| 20260507063405 | 73 | 346 | 2.6 | 12.2 | 0.00 | 0.00 | 0.00 | 80 | 1012.4 |
| 20260507062904 | 74 | 10 | 5.2 | 12.2 | 0.00 | 0.00 | 0.00 | 80 | 1012.4 |
| 20260507062404 | 74 | 8 | 2.6 | 10.4 | 0.00 | 0.00 | 0.00 | 81 | 1012.4 |
| 20260507061905 | 74 | 11 | 2.6 | 10.4 | 0.00 | 0.00 | 0.00 | 81 | 1012.3 |
| 20260507061405 | 74 | 355 | 5.2 | 10.4 | 0.00 | 0.00 | 0.00 | 81 | 1012.3 |
| 20260507060904 | 74 | 36 | 4.3 | 10.4 | 0.00 | 0.00 | 0.00 | 81 | 1012.2 |
| 20260507060404 | 74 | 38 | 3.5 | 8.7 | 0.00 | 0.00 | 0.00 | 81 | 1012.0 |
| 20260507055904 | 74 | 0 | 4.3 | 8.7 | 0.00 | 0.00 | 0.00 | 80 | 1011.9 |
| 20260507055405 | 74 | 9 | 5.2 | 10.4 | 0.00 | 0.00 | 0.00 | 80 | 1011.9 |
| 20260507054904 | 74 | 3 | 5.2 | 10.4 | 0.00 | 0.00 | 0.00 | 81 | 1011.9 |
| 20260507053404 | 74 | 24 | 3.5 | 8.7 | 0.00 | 0.00 | 0.00 | 82 | 1012.0 |
| 20260507052904 | 75 | 11 | 3.5 | 8.7 | 0.00 | 0.00 | 0.00 | 82 | 1012.1 |
| 20260507052404 | 75 | 21 | 3.5 | 8.7 | 0.00 | 0.00 | 0.00 | 82 | 1012.0 |
| 20260507051903 | 75 | 25 | 2.6 | 8.7 | 0.00 | 0.00 | 0.00 | 82 | 1012.0 |
| 20260507051405 | 75 | 7 | 1.7 | 6.1 | 0.00 | 0.00 | 0.00 | 83 | 1011.9 |
| 20260507050403 | 75 | 9 | 4.3 | 8.7 | 0.00 | 0.00 | 0.00 | 83 | 1011.9 |
| 20260507045905 | 75 | 16 | 3.5 | 7.0 | 0.00 | 0.00 | 0.00 | 83 | 1012.0 |
| 20260507045404 | 75 | 18 | 1.7 | 7.8 | 0.00 | 0.00 | 0.00 | 83 | 1012.0 |
| 20260507044904 | 75 | 8 | 5.2 | 7.8 | 0.00 | 0.00 | 0.00 | 83 | 1012.0 |
| 20260507044404 | 76 | 5 | 1.7 | 8.7 | 0.00 | 0.00 | 0.00 | 83 | 1012.0 |
| 20260507043904 | 76 | 349 | 4.3 | 10.4 | 0.00 | 0.00 | 0.00 | 82 | 1012.0 |
| 20260507042904 | 76 | 349 | 3.5 | 8.7 | 0.00 | 0.00 | 0.00 | 82 | 1012.2 |
| 20260507042403 | 76 | 318 | 4.3 | 10.4 | 0.00 | 0.00 | 0.00 | 81 | 1012.1 |
| 20260507041904 | 77 | 315 | 1.7 | 10.4 | 0.00 | 0.00 | 0.00 | 81 | 1012.0 |
| 20260507041404 | 77 | 351 | 2.6 | 10.4 | 0.00 | 0.00 | 0.00 | 81 | 1011.9 |
| 20260507040904 | 78 | 345 | 2.6 | 10.4 | 0.00 | 0.00 | 0.00 | 82 | 1011.8 |
| 20260507040404 | 78 | 335 | 2.6 | 8.7 | 0.00 | 0.00 | 0.00 | 83 | 1011.6 |
| 20260507035405 | 79 | 181 | 0.0 | 0.0 | 0.00 | 0.00 | 0.00 | 85 | 1011.4 |
| 20260507034405 | 79 | 181 | 0.0 | 0.0 | 0.00 | 0.00 | 0.00 | 85 | 1011.3 |
| 20260507033905 | 79 | 181 | 0.0 | 0.0 | 0.00 | 0.00 | 0.00 | 85 | 1011.3 |
| 20260507033404 | 79 | 181 | 0.0 | 0.0 | 0.00 | 0.00 | 0.00 | 85 | 1011.3 |
| 20260507032404 | 79 | 181 | 0.0 | 0.0 | 0.00 | 0.00 | 0.00 | 85 | 1011.0 |
| 20260507031905 | 79 | 181 | 0.0 | 1.7 | 0.00 | 0.00 | 0.00 | 85 | 1010.9 |
| 20260507031405 | 79 | 181 | 0.0 | 1.7 | 0.00 | 0.00 | 0.00 | 85 | 1010.9 |
| 20260507030904 | 79 | 181 | 0.9 | 2.6 | 0.00 | 0.00 | 0.00 | 85 | 1010.7 |
| 20260507030404 | 79 | 181 | 0.9 | 2.6 | 0.00 | 0.00 | 0.00 | 85 | 1010.6 |
| 20260507025904 | 79 | 181 | 0.9 | 2.6 | 0.00 | 0.00 | 0.00 | 85 | 1010.5 |
| 20260507025404 | 79 | 182 | 0.9 | 2.6 | 0.00 | 0.00 | 0.00 | 84 | 1010.5 |
| 20260507024904 | 79 | 182 | 0.0 | 1.7 | 0.00 | 0.00 | 0.00 | 84 | 1010.3 |
| 20260507024404 | 80 | 182 | 0.0 | 1.7 | 0.00 | 0.00 | 0.00 | 84 | 1010.3 |
| 20260507023904 | 80 | 182 | 0.0 | 2.6 | 0.00 | 0.00 | 0.00 | 84 | 1010.2 |
| 20260507023404 | 80 | 182 | 0.0 | 4.3 | 0.00 | 0.00 | 0.00 | 84 | 1010.2 |
| 20260507022905 | 80 | 182 | 0.9 | 4.3 | 0.00 | 0.00 | 0.00 | 84 | 1010.2 |
| 20260507022404 | 80 | 204 | 0.9 | 2.6 | 0.00 | 0.00 | 0.00 | 83 | 1010.0 |
| 20260507021903 | 80 | 206 | 0.9 | 1.7 | 0.00 | 0.00 | 0.00 | 83 | 1010.1 |
| 20260507021405 | 80 | 206 | 0.0 | 1.7 | 0.00 | 0.00 | 0.00 | 83 | 1010.0 |
| 20260507020904 | 80 | 206 | 0.0 | 1.7 | 0.00 | 0.00 | 0.00 | 83 | 1010.0 |
| 20260507020403 | 80 | 206 | 0.0 | 0.9 | 0.00 | 0.00 | 0.00 | 83 | 1010.0 |
| 20260507015904 | 80 | 206 | 0.0 | 1.7 | 0.00 | 0.00 | 0.00 | 82 | 1009.9 |
| 20260507015404 | 80 | 206 | 0.9 | 2.6 | 0.00 | 0.00 | 0.00 | 82 | 1009.7 |
| 20260507014904 | 80 | 206 | 0.9 | 2.6 | 0.00 | 0.00 | 0.00 | 82 | 1009.7 |
| 20260507014404 | 80 | 206 | 0.9 | 2.6 | 0.00 | 0.00 | 0.00 | 82 | 1009.5 |
| 20260507013905 | 80 | 208 | 0.9 | 2.6 | 0.00 | 0.00 | 0.00 | 82 | 1009.4 |
| 20260507013405 | 81 | 208 | 0.9 | 4.3 | 0.00 | 0.00 | 0.00 | 82 | 1009.3 |
| 20260507012904 | 81 | 208 | 1.7 | 5.2 | 0.00 | 0.00 | 0.00 | 82 | 1009.4 |
| 20260507012405 | 81 | 171 | 2.6 | 5.2 | 0.00 | 0.00 | 0.00 | 82 | 1009.3 |
| 20260507011905 | 81 | 166 | 1.7 | 6.1 | 0.00 | 0.00 | 0.00 | 81 | 1009.2 |
| 20260507010904 | 81 | 164 | 1.7 | 4.3 | 0.00 | 0.00 | 0.00 | 81 | 1008.9 |
| 20260507005905 | 81 | 203 | 0.9 | 5.2 | 0.00 | 0.00 | 0.00 | 80 | 1008.9 |
| 20260507005404 | 81 | 187 | 2.6 | 7.0 | 0.00 | 0.00 | 0.00 | 80 | 1008.9 |
| 20260507004904 | 82 | 179 | 3.5 | 7.0 | 0.00 | 0.00 | 0.00 | 80 | 1008.8 |
| 20260507004405 | 82 | 181 | 3.5 | 5.2 | 0.00 | 0.00 | 0.00 | 80 | 1008.7 |
| 20260507003904 | 82 | 175 | 0.9 | 5.2 | 0.00 | 0.00 | 0.00 | 79 | 1008.9 |
| 20260507002904 | 82 | 160 | 1.7 | 4.3 | 0.00 | 0.00 | 0.00 | 79 | 1008.9 |
| 20260507002404 | 82 | 154 | 0.9 | 4.3 | 0.00 | 0.00 | 0.00 | 79 | 1008.7 |
| 20260507001904 | 83 | 186 | 1.7 | 4.3 | 0.00 | 0.00 | 0.00 | 78 | 1008.7 |
| 20260507000904 | 83 | 177 | 1.7 | 6.1 | 0.00 | 0.00 | 0.00 | 78 | 1008.6 |
| 20260507000405 | 83 | 183 | 2.6 | 6.1 | 0.00 | 0.00 | 0.00 | 78 | 1008.6 |
| 20260506235904 | 83 | 194 | 2.6 | 6.1 | 0.00 | 0.00 | 0.00 | 78 | 1008.5 |
| 20260506235404 | 83 | 166 | 0.9 | 6.1 | 0.00 | 0.00 | 0.00 | 77 | 1008.5 |
| 20260506234904 | 83 | 199 | 1.7 | 6.1 | 0.00 | 0.00 | 0.00 | 77 | 1008.5 |
| 20260506234405 | 84 | 152 | 2.6 | 6.1 | 0.00 | 0.00 | 0.00 | 77 | 1008.5 |
| 20260506233905 | 84 | 180 | 1.7 | 6.1 | 0.00 | 0.00 | 0.00 | 77 | 1008.4 |
| 20260506233403 | 84 | 179 | 1.7 | 6.1 | 0.00 | 0.00 | 0.00 | 77 | 1008.4 |
| 20260506232905 | 84 | 180 | 1.7 | 7.0 | 0.00 | 0.00 | 0.00 | 77 | 1008.5 |
| 20260506232405 | 84 | 162 | 1.7 | 7.0 | 0.00 | 0.00 | 0.00 | 77 | 1008.5 |
| 20260506231904 | 84 | 158 | 1.7 | 7.0 | 0.00 | 0.00 | 0.00 | 76 | 1008.5 |
| 20260506231404 | 84 | 177 | 2.6 | 7.8 | 0.00 | 0.00 | 0.00 | 76 | 1008.4 |
| 20260506230904 | 84 | 188 | 2.6 | 8.7 | 0.00 | 0.00 | 0.00 | 76 | 1008.3 |
| 20260506225904 | 84 | 186 | 1.7 | 7.0 | 0.00 | 0.00 | 0.00 | 76 | 1008.2 |
| 20260506225405 | 85 | 167 | 0.9 | 6.1 | 0.00 | 0.00 | 0.00 | 75 | 1008.2 |
| 20260506224404 | 85 | 173 | 4.3 | 8.7 | 0.00 | 0.00 | 0.00 | 75 | 1008.0 |
| 20260506223904 | 85 | 157 | 2.6 | 8.7 | 0.00 | 0.00 | 0.00 | 75 | 1008.1 |
| 20260506222905 | 85 | 171 | 4.3 | 8.7 | 0.00 | 0.00 | 0.00 | 75 | 1008.1 |
| 20260506222405 | 85 | 176 | 3.5 | 7.8 | 0.00 | 0.00 | 0.00 | 75 | 1008.2 |
| 20260506221904 | 85 | 181 | 3.5 | 8.7 | 0.00 | 0.00 | 0.00 | 74 | 1008.3 |
| 20260506221404 | 85 | 156 | 2.6 | 10.4 | 0.00 | 0.00 | 0.00 | 73 | 1008.3 |
| 20260506220404 | 86 | 169 | 3.5 | 10.4 | 0.00 | 0.00 | 0.00 | 72 | 1008.3 |
| 20260506215903 | 87 | 139 | 4.3 | 10.4 | 0.00 | 0.00 | 0.00 | 71 | 1008.2 |
| 20260506215404 | 87 | 224 | 2.6 | 7.0 | 0.00 | 0.00 | 0.00 | 71 | 1008.2 |
| 20260506214905 | 87 | 171 | 3.5 | 7.0 | 0.00 | 0.00 | 0.00 | 70 | 1008.2 |
| 20260506214403 | 88 | 161 | 1.7 | 7.0 | 0.00 | 0.00 | 0.00 | 70 | 1008.2 |
| 20260506213404 | 88 | 177 | 1.7 | 5.2 | 0.00 | 0.00 | 0.00 | 70 | 1008.3 |
| 20260506212904 | 88 | 190 | 2.6 | 7.0 | 0.00 | 0.00 | 0.00 | 69 | 1008.3 |
| 20260506212404 | 88 | 187 | 4.3 | 7.0 | 0.00 | 0.00 | 0.00 | 70 | 1008.3 |
| 20260506211904 | 88 | 170 | 1.7 | 6.1 | 0.00 | 0.00 | 0.00 | 70 | 1008.3 |
| 20260506211404 | 88 | 182 | 2.6 | 6.1 | 0.00 | 0.00 | 0.00 | 71 | 1008.3 |
| 20260506210904 | 88 | 213 | 0.9 | 10.4 | 0.00 | 0.00 | 0.00 | 71 | 1008.3 |
| 20260506205904 | 87 | 161 | 4.3 | 8.7 | 0.00 | 0.00 | 0.00 | 71 | 1008.3 |
| 20260506204904 | 87 | 178 | 5.2 | 12.2 | 0.00 | 0.00 | 0.00 | 72 | 1008.4 |
| 20260506204404 | 87 | 172 | 3.5 | 7.8 | 0.00 | 0.00 | 0.00 | 72 | 1008.5 |
| 20260506203904 | 87 | 163 | 4.3 | 8.7 | 0.00 | 0.00 | 0.00 | 72 | 1008.5 |
| 20260506203404 | 87 | 203 | 1.7 | 13.0 | 0.00 | 0.00 | 0.00 | 74 | 1008.6 |
| 20260506202404 | 85 | 175 | 6.1 | 13.0 | 0.00 | 0.00 | 0.00 | 77 | 1008.7 |
| 20260506201903 | 85 | 151 | 0.9 | 8.7 | 0.00 | 0.00 | 0.00 | 76 | 1008.8 |
| 20260506201404 | 85 | 171 | 4.3 | 8.7 | 0.00 | 0.00 | 0.00 | 76 | 1008.9 |
| 20260506200905 | 85 | 175 | 3.5 | 10.4 | 0.00 | 0.00 | 0.00 | 76 | 1009.0 |
| 20260506200404 | 85 | 183 | 2.6 | 10.4 | 0.00 | 0.00 | 0.00 | 76 | 1009.0 |
| 20260506195904 | 85 | 161 | 4.3 | 8.7 | 0.00 | 0.00 | 0.00 | 75 | 1009.1 |
| 20260506195404 | 86 | 162 | 3.5 | 8.7 | 0.00 | 0.00 | 0.00 | 74 | 1009.1 |
| 20260506194904 | 86 | 196 | 3.5 | 10.4 | 0.00 | 0.00 | 0.00 | 74 | 1009.1 |
| 20260506194404 | 86 | 158 | 4.3 | 11.3 | 0.00 | 0.00 | 0.00 | 74 | 1009.1 |
| 20260506193904 | 86 | 158 | 4.3 | 11.3 | 0.00 | 0.00 | 0.00 | 75 | 1009.2 |
| 20260506193403 | 86 | 164 | 1.7 | 10.4 | 0.00 | 0.00 | 0.00 | 74 | 1009.2 |
| 20260506192904 | 86 | 175 | 4.3 | 10.4 | 0.00 | 0.00 | 0.00 | 74 | 1009.2 |
| 20260506191403 | 86 | 181 | 5.2 | 8.7 | 0.00 | 0.00 | 0.00 | 74 | 1009.4 |
| 20260506190904 | 86 | 181 | 1.7 | 8.7 | 0.00 | 0.00 | 0.00 | 74 | 1009.4 |
| 20260506190404 | 86 | 181 | 5.2 | 7.0 | 0.00 | 0.00 | 0.00 | 74 | 1009.6 |
| 20260506185904 | 86 | 177 | 3.5 | 7.8 | 0.00 | 0.00 | 0.00 | 74 | 1009.5 |
| 20260506185405 | 86 | 141 | 3.5 | 7.8 | 0.00 | 0.00 | 0.00 | 74 | 1009.6 |
| 20260506184904 | 86 | 166 | 2.6 | 7.8 | 0.00 | 0.00 | 0.00 | 74 | 1009.7 |
| 20260506184403 | 86 | 151 | 1.7 | 7.8 | 0.00 | 0.00 | 0.00 | 74 | 1009.8 |
| 20260506183404 | 86 | 187 | 1.7 | 7.8 | 0.00 | 0.00 | 0.00 | 75 | 1009.7 |
| 20260506182404 | 86 | 166 | 2.6 | 7.8 | 0.00 | 0.00 | 0.00 | 76 | 1009.9 |
| 20260506181904 | 86 | 182 | 1.7 | 7.8 | 0.00 | 0.00 | 0.00 | 75 | 1010.0 |
| 20260506181405 | 86 | 151 | 2.6 | 6.1 | 0.00 | 0.00 | 0.00 | 75 | 1010.1 |
| 20260506180905 | 86 | 201 | 1.7 | 6.1 | 0.00 | 0.00 | 0.00 | 76 | 1010.1 |
| 20260506180404 | 85 | 178 | 0.9 | 7.0 | 0.00 | 0.00 | 0.00 | 77 | 1010.1 |
| 20260506175904 | 85 | 171 | 1.7 | 7.8 | 0.00 | 0.00 | 0.00 | 78 | 1010.2 |
| 20260506175404 | 84 | 163 | 1.7 | 7.8 | 0.00 | 0.00 | 0.00 | 78 | 1010.2 |
| 20260506174903 | 84 | 162 | 2.6 | 7.8 | 0.00 | 0.00 | 0.00 | 79 | 1010.2 |
| 20260506174404 | 84 | 140 | 2.6 | 6.1 | 0.00 | 0.00 | 0.00 | 78 | 1010.3 |
| 20260506173904 | 84 | 197 | 2.6 | 7.8 | 0.00 | 0.00 | 0.00 | 78 | 1010.2 |
| 20260506173403 | 84 | 152 | 3.5 | 7.8 | 0.00 | 0.00 | 0.00 | 78 | 1010.3 |
| 20260506172904 | 84 | 193 | 1.7 | 7.8 | 0.00 | 0.00 | 0.00 | 79 | 1010.4 |
| 20260506172405 | 84 | 176 | 2.6 | 7.8 | 0.00 | 0.00 | 0.00 | 80 | 1010.4 |
| 20260506171905 | 83 | 185 | 2.6 | 7.8 | 0.00 | 0.00 | 0.00 | 81 | 1010.5 |
| 20260506171405 | 83 | 147 | 1.7 | 7.8 | 0.00 | 0.00 | 0.00 | 81 | 1010.6 |
| 20260506170404 | 82 | 185 | 3.5 | 7.0 | 0.00 | 0.00 | 0.00 | 84 | 1010.7 |
| 20260506165903 | 81 | 161 | 0.9 | 7.0 | 0.00 | 0.00 | 0.00 | 84 | 1010.8 |
| 20260506165404 | 81 | 146 | 1.7 | 7.0 | 0.00 | 0.00 | 0.00 | 85 | 1010.8 |
| 20260506164904 | 81 | 159 | 0.9 | 4.3 | 0.00 | 0.00 | 0.00 | 86 | 1010.7 |
| 20260506164405 | 81 | 195 | 0.9 | 4.3 | 0.00 | 0.00 | 0.00 | 86 | 1010.7 |
| 20260506163904 | 81 | 185 | 0.9 | 7.0 | 0.00 | 0.00 | 0.00 | 85 | 1010.7 |
| 20260506163404 | 80 | 184 | 2.6 | 7.0 | 0.00 | 0.00 | 0.00 | 85 | 1010.7 |
| 20260506162904 | 80 | 194 | 4.3 | 7.0 | 0.00 | 0.00 | 0.00 | 85 | 1010.6 |
| 20260506162404 | 80 | 175 | 1.7 | 4.3 | 0.00 | 0.00 | 0.00 | 85 | 1010.7 |
| 20260506161903 | 80 | 180 | 2.6 | 6.1 | 0.00 | 0.00 | 0.00 | 85 | 1010.6 |
| 20260506161404 | 80 | 171 | 2.6 | 7.8 | 0.00 | 0.00 | 0.00 | 85 | 1010.6 |
| 20260506160904 | 80 | 210 | 1.7 | 7.8 | 0.00 | 0.00 | 0.00 | 85 | 1010.6 |
| 20260506160404 | 80 | 155 | 3.5 | 7.8 | 0.00 | 0.00 | 0.00 | 85 | 1010.5 |
| 20260506155904 | 80 | 164 | 1.7 | 5.2 | 0.00 | 0.00 | 0.00 | 85 | 1010.6 |
| 20260506155405 | 80 | 163 | 1.7 | 5.2 | 0.00 | 0.00 | 0.00 | 86 | 1010.6 |
| 20260506154404 | 80 | 178 | 1.7 | 5.2 | 0.00 | 0.00 | 0.00 | 86 | 1010.3 |
| 20260506153904 | 80 | 169 | 1.7 | 6.1 | 0.00 | 0.00 | 0.00 | 85 | 1010.1 |
| 20260506153404 | 80 | 183 | 1.7 | 7.0 | 0.00 | 0.00 | 0.00 | 85 | 1010.1 |
| 20260506151904 | 80 | 165 | 1.7 | 5.2 | 0.00 | 0.00 | 0.00 | 85 | 1010.0 |
| 20260506151404 | 80 | 208 | 0.9 | 7.0 | 0.00 | 0.00 | 0.00 | 85 | 1009.9 |
| 20260506150404 | 80 | 142 | 1.7 | 7.0 | 0.00 | 0.00 | 0.00 | 85 | 1009.8 |
| 20260506145905 | 80 | 160 | 2.6 | 7.0 | 0.00 | 0.00 | 0.00 | 86 | 1009.6 |
| 20260506145405 | 80 | 166 | 1.7 | 5.2 | 0.00 | 0.00 | 0.00 | 86 | 1009.5 |
| 20260506144904 | 80 | 178 | 0.9 | 7.0 | 0.00 | 0.00 | 0.00 | 86 | 1009.4 |
| 20260506144405 | 80 | 173 | 3.5 | 7.0 | 0.00 | 0.00 | 0.00 | 86 | 1009.4 |
| 20260506143904 | 80 | 153 | 1.7 | 4.3 | 0.00 | 0.00 | 0.00 | 86 | 1009.4 |
| 20260506143404 | 79 | 153 | 1.7 | 4.3 | 0.00 | 0.00 | 0.00 | 86 | 1009.4 |
| 20260506142904 | 79 | 159 | 2.6 | 7.0 | 0.00 | 0.00 | 0.00 | 86 | 1009.6 |
| 20260506142404 | 79 | 164 | 1.7 | 7.8 | 0.00 | 0.00 | 0.00 | 87 | 1009.5 |
| 20260506141904 | 79 | 142 | 2.6 | 7.8 | 0.00 | 0.00 | 0.00 | 87 | 1009.5 |
| 20260506141404 | 79 | 165 | 2.6 | 5.2 | 0.00 | 0.00 | 0.00 | 88 | 1009.6 |
| 20260506140904 | 79 | 183 | 1.7 | 5.2 | 0.00 | 0.00 | 0.00 | 88 | 1009.6 |
| 20260506140404 | 79 | 187 | 1.7 | 5.2 | 0.00 | 0.00 | 0.00 | 89 | 1009.6 |
| 20260506135904 | 79 | 184 | 2.6 | 7.0 | 0.00 | 0.00 | 0.00 | 89 | 1009.7 |
| 20260506135405 | 79 | 177 | 2.6 | 7.0 | 0.00 | 0.00 | 0.00 | 89 | 1009.7 |
| 20260506134904 | 78 | 176 | 2.6 | 7.0 | 0.00 | 0.00 | 0.00 | 90 | 1009.7 |
| 20260506134404 | 78 | 167 | 1.7 | 4.3 | 0.00 | 0.00 | 0.00 | 90 | 1009.7 |
| 20260506133405 | 78 | 173 | 1.7 | 2.6 | 0.00 | 0.00 | 0.00 | 90 | 1009.8 |
| 20260506132904 | 78 | 170 | 0.9 | 5.2 | 0.00 | 0.00 | 0.00 | 90 | 1009.8 |
| 20260506132404 | 77 | 171 | 0.9 | 5.2 | 0.00 | 0.00 | 0.00 | 90 | 1009.8 |
| 20260506131904 | 77 | 180 | 0.0 | 1.7 | 0.00 | 0.00 | 0.00 | 90 | 1009.9 |
| 20260506131404 | 77 | 181 | 0.9 | 2.6 | 0.00 | 0.00 | 0.00 | 90 | 1009.8 |
| 20260506125904 | 77 | 181 | 0.9 | 6.1 | 0.00 | 0.00 | 0.00 | 90 | 1009.9 |
| 20260506125404 | 77 | 185 | 1.7 | 6.1 | 0.00 | 0.00 | 0.00 | 90 | 1009.8 |
| 20260506124904 | 77 | 163 | 2.6 | 6.1 | 0.00 | 0.00 | 0.00 | 90 | 1009.7 |
| 20260506124405 | 77 | 187 | 0.9 | 5.2 | 0.00 | 0.00 | 0.00 | 90 | 1009.7 |
| 20260506123904 | 77 | 190 | 0.9 | 5.2 | 0.00 | 0.00 | 0.00 | 90 | 1009.6 |
| 20260506123405 | 77 | 191 | 1.7 | 5.2 | 0.00 | 0.00 | 0.00 | 90 | 1009.5 |
| 20260506122904 | 76 | 178 | 1.7 | 5.2 | 0.00 | 0.00 | 0.00 | 90 | 1009.5 |